Location: Kalberh�ni
(46.4610°N, 7.2453°E)
Time: 05:35:32
(UTC+00:00)

Cosmos 1802 Rocket - Pass Details

Date: 26 October 2021
Orbit: 955 x 1010 km, 82.9° (Epoch: 05 December)

Event Time Altitude Azimuth Distance (km) Brightness Sun altitude
Rises 19:23:35 0° 197° (SSW) 3,621 7.0 -31.1°
Reaches altitude 10° 19:26:06 10° 200° (SSW) 2,678 6.3 -31.6°
Maximum altitude 19:32:10 64° 281° (WNW) 1,059 4.3 -32.6°
Drops below altitude 10° 19:38:18 10° 3° (N) 2,707 6.4 -33.6°
Sets 19:40:51 0° 7° (N) 3,663 7.1 -34.0°
